Regional Weather Roundup
Issued by NWS

Home | Current Version | Previous Version | Graphics & Text | Print | Product List | Glossary On
Versions: 1 2 3 4 5 6 7 8 9 10 11 12 13 14 15 16 17 18 19 20 21 22 23 24 25 26 27 28 29 30 31 32 33 34 35 36 37 38 39 40 41 42 43 44 45 46 47 48 49 50
311
ASUS43 KMKX 240011
RWRWI

WISCONSIN REGIONAL WEATHER ROUNDUP
NATIONAL WEATHER SERVICE MILWAUKEE/SULLIVAN WI
700 PM CDT SUN JUL 23 2017

NOTE: "FAIR" INDICATES FEW OR NO CLOUDS BELOW 12,000 FEET WITH NO
SIGNIFICANT WEATHER AND/OR OBSTRUCTIONS TO VISIBILITY.

WIZ001-002-006>008-014>016-023>028-240100-
NORTHWEST WISCONSIN

CITY           SKY/WX    TMP DP  RH WIND       PRES   REMARKS
SUPERIOR ARPT  NOT AVBL
ASHLAND        PTSUNNY   63  58  83 NE9       30.02R
6HR MIN TEMP:  59; 6HR MAX TEMP:  63; 6HR PCP:  0.02;

HAYWARD        CLOUDY    63  56  78 N12       30.01R
6HR MIN TEMP:  61; 6HR MAX TEMP:  63; 6HR PCP: TRACE;

SIREN          PTSUNNY   66  57  72 NE5       30.01R
6HR MIN TEMP:  65; 6HR MAX TEMP:  69;

CUMBERLAND     CLOUDY    63  55  77 N8        30.00R
RICE LAKE      CLOUDY    64  58  78 N10       30.00S
6HR MIN TEMP:  64; 6HR MAX TEMP:  68;

CHETEK         CLOUDY    65  59  80 N9        29.98S
6HR MIN TEMP:  65; 6HR MAX TEMP:  69;

LADYSMITH      CLOUDY    65  57  76 NE14      30.00R
6HR MIN TEMP:  64; 6HR MAX TEMP:  69;

EAU CLAIRE     CLOUDY    68  58  70 N6        29.95R
6HR MIN TEMP:  68; 6HR MAX TEMP:  75;

MENOMONIE      CLOUDY    68  57  68 N12       29.98R
6HR MIN TEMP:  68; 6HR MAX TEMP:  74;

NEW RICHMOND   PTSUNNY   69  56  62 NE14      29.99R
6HR MIN TEMP:  69; 6HR MAX TEMP:  73;

OSCEOLA        PTSUNNY   69  58  68 N9        30.01S
6HR MIN TEMP:  69; 6HR MAX TEMP:  73;

$$

WIZ003>005-009-010-017-018-240100-
NORTH CENTRAL WISCONSIN

CITY           SKY/WX    TMP DP  RH WIND       PRES   REMARKS
MANITOWISH WTR CLOUDY    60  60 100 NE8       30.00R
6HR MIN TEMP:  59; 6HR MAX TEMP:  64;

ARBOR VITAE    CLOUDY    62  57  84 NE10      29.99R
6HR MIN TEMP:  62; 6HR MAX TEMP:  64;

WOODRUFF       CLOUDY    62  57  84 NE10      29.99R
6HR MIN TEMP:  62; 6HR MAX TEMP:  64;

RHINELANDER    CLOUDY    62  57  83 NE9       29.99R
6HR MIN TEMP:  62; 6HR MAX TEMP:  72;

EAGLE RIVER    CLOUDY    60  54  78 N8        29.99R
6HR MIN TEMP:  60; 6HR MAX TEMP:  64;

LAND O LAKES   CLOUDY    61  55  82 N7        30.01R
6HR MIN TEMP:  60; 6HR MAX TEMP:  64;

PHILLIPS       CLOUDY    63  59  86 N10       29.98R
6HR MIN TEMP:  63; 6HR MAX TEMP:  66;

TOMAHAWK         N/A     64  56  75 N8        29.97R
6HR MIN TEMP:  63; 6HR MAX TEMP:  70;

MEDFORD        CLOUDY    65  57  76 N10       29.95S
6HR MIN TEMP:  64; 6HR MAX TEMP:  72;

MERRILL        NOT AVBL
$$

WIZ029-030-035-036-043>047-240100-
CENTRAL WISCONSIN

CITY           SKY/WX    TMP DP  RH WIND       PRES   REMARKS
WAUSAU         MOSUNNY   69  58  67 N12G18    29.91R
6HR MIN TEMP:  68; 6HR MAX TEMP:  79;

MOSINEE        MOSUNNY   70  57  64 N15G23    29.92R
MARSHFIELD     MOSUNNY   69  57  65 N14G26    29.92R
6HR MIN TEMP:  69; 6HR MAX TEMP:  79;

STEVENS POINT  MOSUNNY   71  58  64 N15G23    29.90R
6HR MIN TEMP:  71; 6HR MAX TEMP:  79;

WAUPACA        PTSUNNY   78  60  53 N7        29.86R
6HR MIN TEMP:  78; 6HR MAX TEMP:  85;

WAUTOMA        MOSUNNY   77  62  59 N9        29.86R
6HR MIN TEMP:  76; 6HR MAX TEMP:  83;

WISC RAPIDS    SUNNY     76  60  57 N12G22    29.89R
6HR MIN TEMP:  76; 6HR MAX TEMP:  84;

CAMP DOUGLAS   SUNNY     75  60  60 NW9       29.88R
6HR MIN TEMP:  74; 6HR MAX TEMP:  80;

$$

WIZ011>013-019>022-031-037>040-048>050-240100-
NORTHEAST WISCONSIN

CITY           SKY/WX    TMP DP  RH WIND       PRES   REMARKS
ANTIGO         CLOUDY    66  57  72 N15G21    29.94R
6HR MIN TEMP:  65; 6HR MAX TEMP:  77;

SHAWANO        MOSUNNY   73  58  60 NE18G28   29.89R
6HR MIN TEMP:  73; 6HR MAX TEMP:  83;

OCONTO         CLOUDY    66  56  71 N15G23    29.89R
6HR MIN TEMP:  66; 6HR MAX TEMP:  80;

STURGEON BAY     N/A     65  59  81 N20G26    29.88R
6HR MIN TEMP:  65; 6HR MAX TEMP:  76;

GREEN BAY      PTSUNNY   73  63  70 N17G24    29.87R
6HR MIN TEMP:  70; 6HR MAX TEMP:  80; 6HR PCP:  0.05;

MANITOWOC      CLOUDY    67  64  90 NE7       29.87R
6HR MIN TEMP:  67; 6HR MAX TEMP:  80; 6HR PCP:  0.06;

APPLETON       PTSUNNY   72  63  73 NE16G22     N/A
CLINTONVILLE   MOSUNNY   72  57  60 NE15G25   29.88R
OSHKOSH        PTSUNNY   76  63  64 NE7       29.83R
6HR MIN TEMP:  75; 6HR MAX TEMP:  83;

$$

WIZ032>034-041-042-053>061-240100-
SOUTHWEST WISCONSIN

CITY           SKY/WX    TMP DP  RH WIND       PRES   REMARKS
LA CROSSE      SUNNY     76  60  57 N14       29.90R
6HR MIN TEMP:  76; 6HR MAX TEMP:  83;

SPARTA         MOSUNNY   73  59  61 NW7       29.91R
6HR MIN TEMP:  73; 6HR MAX TEMP:  79;

VIROQUA        MOSUNNY   73  61  66 N6G20     29.91R
6HR MIN TEMP:  73; 6HR MAX TEMP:  78;

BOSCOBEL       MOSUNNY   79  62  56 N8        29.87R HX  80
6HR MIN TEMP:  79; 6HR MAX TEMP:  86;

PRAIRIE DU CHI SUNNY     76  57  50 N10       29.88R
6HR MIN TEMP:  76; 6HR MAX TEMP:  83;

PLATTEVILLE    SUNNY     77  63  61 NW13      29.88R
6HR MIN TEMP:  77; 6HR MAX TEMP:  83;

$$

WIZ056-057-062-063-064-067-068-240100-
SOUTH CENTRAL WISCONSIN

CITY           SKY/WX    TMP DP  RH WIND       PRES   REMARKS
REEDSBURG      SUNNY     76  62  62 N15       29.87R
6HR MIN TEMP:  75; 6HR MAX TEMP:  81;

BARABOO/DELLS  SUNNY     77  58  51 NW8G16    29.87R
6HR MIN TEMP:  77; 6HR MAX TEMP:  84;

LONE ROCK      SUNNY     78  61  55 NW8       29.86R HX  80
6HR MIN TEMP:  78; 6HR MAX TEMP:  83;

MINERAL POINT  SUNNY     77  61  57 NW9       29.88R
MADISON        MOSUNNY   79  61  53 NW9       29.84R HX  80
6HR MIN TEMP:  79; 6HR MAX TEMP:  83;

MIDDLETON      PTSUNNY   80  61  53 NW8       29.86R HX  81
6HR MIN TEMP:  78; 6HR MAX TEMP:  84;

WATERTOWN      MOSUNNY   77  63  61 NW7       29.83R
6HR MIN TEMP:  77; 6HR MAX TEMP:  82;

MONROE         MOSUNNY   77  61  57 N8G17     29.85R
JANESVILLE     PTSUNNY   81  66  61 SW5       29.83R HX  83
$$

WIZ051-052-058>065-066-070>072-240100-
SOUTHEAST WISCONSIN

CITY           SKY/WX    TMP DP  RH WIND       PRES   REMARKS
MILWAUKEE      PTSUNNY   75  67  76 NE13      29.81R
6HR MIN TEMP:  75; 6HR MAX TEMP:  86; 6HR PCP:  0.01;

WAUKESHA       MOSUNNY   77  61  57 NW9       29.83R
MILWAUKEE/TIMM PTSUNNY   75  63  64 NE8       29.82R
RACINE         PTSUNNY   79  68  69 CALM      29.82S HX  81
6HR MIN TEMP:  75; 6HR MAX TEMP:  86;

KENOSHA        CLOUDY    76  69  79 SW3       29.81S
6HR MIN TEMP:  73; 6HR MAX TEMP:  87;

FOND DU LAC    PTSUNNY   77  60  55 N12       29.84R
6HR MIN TEMP:  76; 6HR MAX TEMP:  83;

SHEBOYGAN      CLOUDY    70  67  90 NE14      29.85R
6HR MIN TEMP:  70; 6HR MAX TEMP:  83;

WEST BEND      MOSUNNY   73  66  78 E5        29.83R
JUNEAU         PTSUNNY   77  63  61 N6        29.84S
6HR MIN TEMP:  76; 6HR MAX TEMP:  81;

$$

LSZ147-162-240100-
LAKE SUPERIOR

STATION/POSITION TIME  TEMP    WIND        PRES    WAVE
                       AIR SEA DIR/SP/G            HT/PER
                 (UTC) (F)     (DEG/KT/KT) (MB)    (FT/S)
W MID LAKE BUOY  2250   51 48   30/  4/  4 1016.1S   2/ 4
DEVILS ISLAND    0000   58     340/  3/  3 1016.7R
SAXON HARBOR     2340   61      20/  6/  7 1015.9R
$$

LMZ867-665-643>646-240100-
LAKE MICHIGAN

STATION/POSITION TIME  TEMP    WIND        PRES    WAVE
                       AIR SEA DIR/SP/G            HT/PER
                 (UTC) (F)     (DEG/KT/KT) (MB)    (FT/S)
CHAMBERS ISLAND  2340   66     340/ 21/ 24 1011.2R
S GREEN BAY BUOY 0000   68 73   20/ 19/ 25 1011.7
N MID LAKE BUOY  2350   63 67   30/ 19/ 23 1011.0R   3/ 4
NORTHPORT PIER   2



USA.gov is the U.S. government's official web portal to all federal, state and local government web resources and services.